Time,TemperatureF,DewpointF,PressureIn,WindDirection,WindDirectionDegrees,WindSpeedMPH,WindSpeedGustMPH,Humidity,HourlyPrecipIn,Conditions,Clouds,dailyrainin,SoftwareType,DateUTC
2013-08-10 00:02:00,79.0,74.0,29.99,SW,219,0.0,0.0,84,0.00,,,0.00,,2013-08-10 04:02:00,
2013-08-10 00:12:00,79.0,74.0,29.99,SW,219,0.0,0.0,84,0.00,,,0.00,,2013-08-10 04:12:00,
2013-08-10 00:22:00,79.0,74.0,29.99,SW,219,0.0,0.0,85,0.00,,,0.00,,2013-08-10 04:22:00,
2013-08-10 00:32:00,78.0,73.0,29.99,SW,219,0.0,0.0,86,0.00,,,0.00,,2013-08-10 04:32:00,
2013-08-10 00:43:00,78.0,73.0,29.99,SW,219,0.0,0.0,86,0.00,,,0.00,,2013-08-10 04:43:00,
2013-08-10 00:53:00,78.0,74.0,29.99,SW,219,0.0,0.0,87,0.00,,,0.00,,2013-08-10 04:53:00,
2013-08-10 01:02:00,78.0,74.0,29.99,SW,219,0.0,0.0,87,0.00,,,0.00,,2013-08-10 05:02:00,
2013-08-10 01:11:00,78.0,74.0,29.99,SW,219,0.0,0.0,87,0.00,,,0.00,,2013-08-10 05:11:00,
2013-08-10 01:32:00,77.0,74.0,29.99,SW,219,0.0,0.0,89,0.00,,,0.00,,2013-08-10 05:32:00,
2013-08-10 01:43:00,77.0,74.0,29.99,SW,219,0.0,0.0,89,0.00,,,0.00,,2013-08-10 05:43:00,
2013-08-10 01:52:00,77.0,74.0,29.99,SW,219,0.0,0.0,89,0.00,,,0.00,,2013-08-10 05:52:00,
2013-08-10 02:02:00,77.0,74.0,29.99,SW,219,0.0,0.0,89,0.00,,,0.00,,2013-08-10 06:02:00,
2013-08-10 02:32:00,77.0,74.0,29.99,SSW,209,0.0,0.0,90,0.00,,,0.00,,2013-08-10 06:32:00,
2013-08-10 02:44:00,77.0,74.0,29.99,SSW,209,0.0,0.0,90,0.00,,,0.00,,2013-08-10 06:44:00,
2013-08-10 02:53:00,77.0,74.0,29.99,SSW,209,0.0,0.0,90,0.00,,,0.00,,2013-08-10 06:53:00,
2013-08-10 03:02:00,77.0,74.0,29.99,SSW,208,0.0,0.0,90,0.00,,,0.00,,2013-08-10 07:02:00,
2013-08-10 03:22:00,77.0,74.0,29.99,SSW,207,0.0,0.0,90,0.00,,,0.00,,2013-08-10 07:22:00,
2013-08-10 03:52:00,77.0,74.0,29.99,South,187,0.0,0.0,90,0.00,,,0.00,,2013-08-10 07:52:00,
2013-08-10 04:02:00,77.0,74.0,29.99,South,188,0.0,0.0,90,0.00,,,0.00,,2013-08-10 08:02:00,
2013-08-10 04:32:00,77.0,74.0,29.99,SSW,202,0.0,0.0,91,0.00,,,0.00,,2013-08-10 08:32:00,
2013-08-10 04:43:00,77.0,74.0,29.99,SW,220,0.0,0.0,91,0.00,,,0.00,,2013-08-10 08:43:00,
2013-08-10 04:53:00,76.0,73.0,29.98,SW,218,0.0,0.0,91,0.00,,,0.00,,2013-08-10 08:53:00,
2013-08-10 05:02:00,76.0,74.0,29.98,SW,218,0.0,0.0,92,0.00,,,0.00,,2013-08-10 09:02:00,
2013-08-10 05:12:00,76.0,74.0,29.98,SW,218,0.0,0.0,92,0.00,,,0.00,,2013-08-10 09:12:00,
2013-08-10 05:32:00,76.0,74.0,29.98,SW,218,0.0,0.0,92,0.00,,,0.00,,2013-08-10 09:32:00,
2013-08-10 06:02:00,75.0,73.0,29.99,SW,218,0.0,0.0,93,0.00,,,0.00,,2013-08-10 10:02:00,
2013-08-10 06:11:00,75.0,73.0,29.99,SW,218,0.0,0.0,93,0.00,,,0.00,,2013-08-10 10:11:00,
2013-08-10 06:33:00,75.0,73.0,30.00,SW,218,0.0,0.0,94,0.00,,,0.00,,2013-08-10 10:33:00,
2013-08-10 06:44:00,75.0,73.0,30.00,SW,218,0.0,0.0,94,0.00,,,0.00,,2013-08-10 10:44:00,
2013-08-10 06:52:00,75.0,73.0,30.00,SW,218,0.0,0.0,94,0.00,,,0.00,,2013-08-10 10:52:00,
2013-08-10 07:33:00,75.0,73.0,30.01,NW,326,0.0,0.0,94,0.00,,,0.00,,2013-08-10 11:33:00,
2013-08-10 08:32:00,77.0,74.0,30.01,ESE,113,0.0,0.0,90,0.00,,,0.00,,2013-08-10 12:32:00,
2013-08-10 08:52:00,77.0,74.0,30.01,SSE,155,0.0,0.0,89,0.00,,,0.00,,2013-08-10 12:52:00,
2013-08-10 09:01:00,78.0,73.0,30.02,WNW,289,0.0,0.0,86,0.00,,,0.00,,2013-08-10 13:01:00,
2013-08-10 09:43:00,81.0,75.0,30.02,NNW,330,0.0,1.0,81,0.00,,,0.00,,2013-08-10 13:43:00,
2013-08-10 09:52:00,81.0,75.0,30.02,NNW,330,0.0,1.0,82,0.00,,,0.00,,2013-08-10 13:52:00,
2013-08-10 10:02:00,82.0,75.0,30.02,SW,219,0.0,5.0,80,0.00,,,0.00,,2013-08-10 14:02:00,
2013-08-10 10:33:00,85.0,76.0,30.03,South,181,0.0,6.0,75,0.00,,,0.00,,2013-08-10 14:33:00,
2013-08-10 10:43:00,85.0,75.0,30.03,WSW,251,0.0,2.0,73,0.00,,,0.00,,2013-08-10 14:43:00,
2013-08-10 10:53:00,86.0,76.0,30.02,NW,314,2.0,5.0,73,0.00,,,0.00,,2013-08-10 14:53:00,
2013-08-10 11:02:00,86.0,77.0,30.02,NNW,332,0.0,6.0,74,0.00,,,0.00,,2013-08-10 15:02:00,
2013-08-10 11:12:00,86.0,76.0,30.02,NNW,346,0.0,5.0,72,0.00,,,0.00,,2013-08-10 15:12:00,
2013-08-10 11:34:00,87.0,77.0,30.02,NW,325,0.0,7.0,72,0.00,,,0.00,,2013-08-10 15:34:00,
2013-08-10 11:52:00,87.0,76.0,30.03,NNW,334,1.0,5.0,71,0.00,,,0.00,,2013-08-10 15:52:00,
2013-08-10 12:02:00,87.0,76.0,30.02,NW,306,0.0,5.0,70,0.00,,,0.00,,2013-08-10 16:02:00,
2013-08-10 12:12:00,88.0,77.0,30.02,North,5,0.0,7.0,69,0.00,,,0.00,,2013-08-10 16:12:00,
2013-08-10 12:22:00,89.0,77.0,30.02,WNW,297,0.0,6.0,68,0.00,,,0.00,,2013-08-10 16:22:00,
2013-08-10 12:43:00,90.0,77.0,30.01,SSW,212,2.0,10.0,66,0.00,,,0.00,,2013-08-10 16:43:00,
2013-08-10 12:53:00,90.0,77.0,30.01,WNW,299,0.0,4.0,65,0.00,,,0.00,,2013-08-10 16:53:00,
2013-08-10 13:02:00,90.0,76.0,30.01,NW,319,0.0,6.0,63,0.00,,,0.00,,2013-08-10 17:02:00,
2013-08-10 13:12:00,90.0,76.0,30.01,South,184,2.0,5.0,64,0.00,,,0.00,,2013-08-10 17:12:00,
2013-08-10 13:22:00,91.0,77.0,30.01,North,10,0.0,4.0,64,0.00,,,0.00,,2013-08-10 17:22:00,
2013-08-10 13:33:00,92.0,76.0,30.00,NW,312,4.0,12.0,60,0.00,,,0.00,,2013-08-10 17:33:00,
2013-08-10 13:43:00,92.0,76.0,30.00,SW,217,0.0,6.0,59,0.00,,,0.00,,2013-08-10 17:43:00,
2013-08-10 13:52:00,91.0,75.0,29.99,WSW,251,1.0,5.0,60,0.00,,,0.00,,2013-08-10 17:52:00,
2013-08-10 14:01:00,91.0,75.0,29.99,WSW,250,0.0,5.0,60,0.00,,,0.00,,2013-08-10 18:01:00,
2013-08-10 14:11:00,92.0,78.0,29.99,ENE,61,0.0,6.0,63,0.00,,,0.00,,2013-08-10 18:11:00,
2013-08-10 14:23:00,91.0,78.0,29.98,SW,215,0.0,4.0,65,0.00,,,0.00,,2013-08-10 18:23:00,
2013-08-10 14:32:00,92.0,75.0,29.98,South,174,1.0,6.0,57,0.00,,,0.00,,2013-08-10 18:32:00,
2013-08-10 14:44:00,92.0,75.0,29.98,WNW,289,0.0,6.0,57,0.00,,,0.00,,2013-08-10 18:44:00,
2013-08-10 14:52:00,91.0,76.0,29.97,SW,225,0.0,1.0,61,0.00,,,0.00,,2013-08-10 18:52:00,
2013-08-10 15:02:00,92.0,76.0,29.97,WNW,298,0.0,7.0,59,0.00,,,0.00,,2013-08-10 19:02:00,
2013-08-10 15:12:00,92.0,74.0,29.97,WSW,241,1.0,6.0,56,0.00,,,0.00,,2013-08-10 19:12:00,
2013-08-10 15:22:00,91.0,75.0,29.97,SSW,206,0.0,1.0,59,0.00,,,0.00,,2013-08-10 19:22:00,
2013-08-10 15:33:00,92.0,76.0,29.96,SW,214,0.0,4.0,60,0.00,,,0.00,,2013-08-10 19:33:00,
2013-08-10 15:44:00,93.0,78.0,29.97,South,187,0.0,4.0,61,0.00,,,0.00,,2013-08-10 19:44:00,
2013-08-10 15:53:00,93.0,75.0,29.96,SW,224,1.0,6.0,57,0.00,,,0.00,,2013-08-10 19:53:00,
2013-08-10 16:02:00,93.0,77.0,29.95,East,95,0.0,6.0,60,0.00,,,0.00,,2013-08-10 20:02:00,
2013-08-10 16:33:00,93.0,74.0,29.95,West,271,1.0,5.0,55,0.00,,,0.00,,2013-08-10 20:33:00,
2013-08-10 16:43:00,92.0,75.0,29.95,West,270,0.0,5.0,58,0.00,,,0.00,,2013-08-10 20:43:00,
2013-08-10 16:53:00,91.0,76.0,29.94,NW,305,0.0,1.0,62,0.00,,,0.00,,2013-08-10 20:53:00,
2013-08-10 17:02:00,93.0,78.0,29.94,SSE,149,0.0,6.0,61,0.00,,,0.00,,2013-08-10 21:02:00,
2013-08-10 17:12:00,93.0,77.0,29.94,NNE,18,0.0,7.0,59,0.00,,,0.00,,2013-08-10 21:12:00,
2013-08-10 17:22:00,93.0,75.0,29.94,WSW,242,0.0,7.0,56,0.00,,,0.00,,2013-08-10 21:22:00,
2013-08-10 17:32:00,91.0,74.0,29.95,NW,325,2.0,8.0,58,0.00,,,0.00,,2013-08-10 21:32:00,
2013-08-10 17:42:00,89.0,74.0,29.95,NNW,333,0.0,11.0,61,0.00,,,0.00,,2013-08-10 21:42:00,
2013-08-10 17:52:00,86.0,73.0,29.97,NNW,333,2.0,19.0,65,0.00,,,0.00,,2013-08-10 21:52:00,
2013-08-10 18:01:00,81.0,74.0,29.98,NNW,345,4.0,24.0,80,0.15,,,0.15,,2013-08-10 22:01:00,
2013-08-10 18:11:00,77.0,73.0,29.98,NNW,334,0.0,11.0,88,0.25,,,0.25,,2013-08-10 22:11:00,
2013-08-10 18:21:00,76.0,73.0,29.98,NW,310,0.0,7.0,91,0.25,,,0.25,,2013-08-10 22:21:00,
2013-08-10 18:32:00,75.0,73.0,29.96,NNW,345,0.0,1.0,92,0.25,,,0.25,,2013-08-10 22:32:00,
2013-08-10 18:52:00,75.0,73.0,29.98,NW,321,0.0,0.0,93,0.27,,,0.27,,2013-08-10 22:52:00,
2013-08-10 19:02:00,75.0,73.0,29.97,NW,321,0.0,0.0,94,0.12,,,0.27,,2013-08-10 23:02:00,
2013-08-10 19:12:00,75.0,73.0,29.97,NW,321,0.0,1.0,94,0.02,,,0.27,,2013-08-10 23:12:00,
2013-08-10 19:22:00,75.0,73.0,29.98,NW,321,0.0,0.0,94,0.02,,,0.27,,2013-08-10 23:22:00,
2013-08-10 19:32:00,74.0,72.0,29.99,East,79,0.0,0.0,94,0.02,,,0.27,,2013-08-10 23:32:00,
2013-08-10 19:43:00,75.0,73.0,29.99,East,81,0.0,0.0,95,0.01,,,0.27,,2013-08-10 23:43:00,
2013-08-10 19:53:00,75.0,73.0,30.01,East,99,0.0,0.0,95,0.00,,,0.27,,2013-08-10 23:53:00,
2013-08-10 20:02:00,75.0,73.0,30.02,SSE,166,0.0,3.0,95,0.00,,,0.27,,2013-08-11 00:02:00,
2013-08-10 20:11:00,75.0,73.0,30.02,SSE,166,0.0,1.0,95,0.00,,,0.27,,2013-08-11 00:11:00,
2013-08-10 20:22:00,75.0,73.0,30.02,SSE,166,0.0,0.0,95,0.00,,,0.27,,2013-08-11 00:22:00,
2013-08-10 20:32:00,74.0,72.0,30.00,SSE,166,0.0,0.0,95,0.00,,,0.27,,2013-08-11 00:32:00,
2013-08-10 20:42:00,74.0,72.0,30.00,SSE,166,0.0,1.0,95,0.00,,,0.27,,2013-08-11 00:42:00,
2013-08-10 20:52:00,74.0,73.0,30.00,SSE,166,0.0,0.0,96,0.00,,,0.27,,2013-08-11 00:52:00,
2013-08-10 21:02:00,74.0,73.0,30.00,SSE,166,0.0,0.0,96,0.00,,,0.27,,2013-08-11 01:02:00,
2013-08-10 21:11:00,74.0,73.0,30.00,SSE,166,0.0,0.0,96,0.00,,,0.27,,2013-08-11 01:11:00,
2013-08-10 21:22:00,74.0,73.0,30.01,SSE,166,0.0,0.0,96,0.00,,,0.27,,2013-08-11 01:22:00,
2013-08-10 21:32:00,74.0,73.0,30.00,SSE,166,0.0,0.0,96,0.00,,,0.27,,2013-08-11 01:32:00,
2013-08-10 21:43:00,74.0,73.0,30.00,SSE,166,0.0,0.0,96,0.00,,,0.27,,2013-08-11 01:43:00,
2013-08-10 21:53:00,74.0,73.0,30.01,SSE,166,0.0,0.0,96,0.00,,,0.27,,2013-08-11 01:53:00,
2013-08-10 22:02:00,74.0,73.0,30.01,SSE,166,0.0,0.0,96,0.00,,,0.27,,2013-08-11 02:02:00,
2013-08-10 22:12:00,74.0,73.0,30.01,SSE,166,0.0,0.0,96,0.00,,,0.27,,2013-08-11 02:12:00,
2013-08-10 22:22:00,74.0,73.0,30.02,SSE,166,0.0,0.0,96,0.00,,,0.27,,2013-08-11 02:22:00,
2013-08-10 22:32:00,74.0,73.0,30.02,SSE,166,0.0,0.0,97,0.00,,,0.27,,2013-08-11 02:32:00,
2013-08-10 22:43:00,73.0,72.0,30.02,SSE,166,0.0,0.0,97,0.00,,,0.27,,2013-08-11 02:43:00,
2013-08-10 22:56:00,74.0,73.0,30.03,SSE,166,0.0,0.0,97,0.00,,,0.27,,2013-08-11 02:56:00,
2013-08-10 23:07:00,74.0,73.0,30.03,SSE,166,0.0,0.0,97,0.00,,,0.27,,2013-08-11 03:07:00,
2013-08-10 23:18:00,74.0,73.0,30.03,SSE,166,0.0,0.0,97,0.00,,,0.27,,2013-08-11 03:18:00,
2013-08-10 23:28:00,74.0,73.0,30.04,SSE,166,0.0,0.0,97,0.00,,,0.27,,2013-08-11 03:28:00,
2013-08-10 23:36:00,74.0,73.0,30.04,SSE,166,0.0,0.0,97,0.00,,,0.27,,2013-08-11 03:36:00,
2013-08-10 23:44:00,74.0,73.0,30.04,SSE,166,0.0,0.0,97,0.00,,,0.27,,2013-08-11 03:44:00,
2013-08-10 23:54:00,74.0,73.0,30.04,SSE,166,0.0,0.0,97,0.00,,,0.27,,2013-08-11 03:54:00,